CEB382 RPVI-RPMR

Flight info

Callsign CEB382
Flight time 0h 47m
Altitude 37000
Route NANAS3C NANAS B472 COT W19 MELBY MELBY3P
Aircraft A320/M-SDE3FGHIRWY/LB1

Departure

Time 2026-04-25 14:10
Airport Iloilo International Airport (RPVI)

Arrival

Time 2026-04-25 14:58
Airport General Santos International Airport (RPMR)
Time Latitude Longitude Altitude Speed Heading
2026-04-25 13:51 10.83113 122.49651 175 ft 0 kts 109°
2026-04-25 14:00 10.83115 122.49644 175 ft 2 kts 108°
2026-04-25 14:00 10.83122 122.49625 175 ft 2 kts 110°
2026-04-25 14:00 10.83127 122.49611 175 ft 2 kts 109°
2026-04-25 14:00 10.83132 122.49596 175 ft 2 kts 110°
2026-04-25 14:01 10.83141 122.49583 175 ft 2 kts 144°
2026-04-25 14:01 10.83155 122.49577 175 ft 2 kts 172°
2026-04-25 14:01 10.83168 122.49578 175 ft 0 kts 195°
2026-04-25 14:01 10.83174 122.49580 175 ft 1 kts 200°
2026-04-25 14:02 10.83175 122.49580 175 ft 0 kts 200°
2026-04-25 14:05 10.83162 122.49576 175 ft 3 kts 200°
2026-04-25 14:05 10.83127 122.49563 175 ft 6 kts 200°
2026-04-25 14:05 10.83077 122.49544 175 ft 8 kts 200°
2026-04-25 14:05 10.83045 122.49529 175 ft 4 kts 218°
2026-04-25 14:06 10.83031 122.49474 175 ft 10 kts 280°
2026-04-25 14:06 10.83061 122.49395 175 ft 12 kts 290°
2026-04-25 14:06 10.83089 122.49309 175 ft 12 kts 281°
2026-04-25 14:06 10.83046 122.49242 175 ft 13 kts 201°
2026-04-25 14:07 10.82953 122.49206 176 ft 14 kts 200°
2026-04-25 14:07 10.82853 122.49170 176 ft 15 kts 200°
2026-04-25 14:07 10.82748 122.49131 176 ft 16 kts 200°
2026-04-25 14:07 10.82640 122.49091 176 ft 16 kts 200°
2026-04-25 14:08 10.82526 122.49049 176 ft 17 kts 200°
2026-04-25 14:08 10.82410 122.49006 176 ft 17 kts 200°
2026-04-25 14:08 10.82299 122.48949 176 ft 15 kts 202°
2026-04-25 14:08 10.82249 122.48944 176 ft 6 kts 102°
2026-04-25 14:09 10.82285 122.48962 176 ft 5 kts 10°
2026-04-25 14:09 10.82307 122.48968 176 ft 0 kts 20°
2026-04-25 14:10 10.82342 122.48981 176 ft 27 kts 20°
2026-04-25 14:10 10.82778 122.49141 176 ft 101 kts 19°
2026-04-25 14:10 10.83637 122.49461 287 ft 147 kts 19°
2026-04-25 14:10 10.84571 122.49824 889 ft 148 kts 20°
2026-04-25 14:11 10.85486 122.50309 1539 ft 152 kts 46°
2026-04-25 14:11 10.85833 122.51309 2116 ft 160 kts 90°
2026-04-25 14:11 10.85398 122.52407 2511 ft 181 kts 130°
2026-04-25 14:11 10.84222 122.52962 2935 ft 203 kts 174°
2026-04-25 14:12 10.82748 122.52782 3373 ft 222 kts 183°
2026-04-25 14:12 10.81169 122.52966 3754 ft 236 kts 153°
2026-04-25 14:12 10.79708 122.53816 4296 ft 249 kts 145°
2026-04-25 14:12 10.78184 122.54765 4830 ft 266 kts 147°
2026-04-25 14:13 10.76522 122.55695 5606 ft 273 kts 149°
2026-04-25 14:13 10.74824 122.56564 6476 ft 276 kts 151°
2026-04-25 14:13 10.73095 122.57400 7326 ft 280 kts 152°
2026-04-25 14:13 10.71318 122.58227 8151 ft 284 kts 153°
2026-04-25 14:14 10.69499 122.59052 8963 ft 288 kts 154°
2026-04-25 14:14 10.67642 122.59882 9755 ft 292 kts 154°
2026-04-25 14:14 10.65772 122.60708 10486 ft 298 kts 155°
2026-04-25 14:14 10.63826 122.61565 10971 ft 313 kts 155°
2026-04-25 14:15 10.61781 122.62461 11610 ft 321 kts 155°
2026-04-25 14:15 10.60412 122.63059 12115 ft 323 kts 155°
2026-04-25 14:15 10.57643 122.64269 13118 ft 327 kts 156°
2026-04-25 14:15 10.55556 122.65179 13825 ft 330 kts 156°
2026-04-25 14:16 10.53429 122.66106 14511 ft 334 kts 156°
2026-04-25 14:16 10.51259 122.67052 15178 ft 338 kts 155°
2026-04-25 14:16 10.49108 122.67989 15814 ft 342 kts 155°
2026-04-25 14:16 10.46913 122.68946 16441 ft 346 kts 155°
2026-04-25 14:17 10.44679 122.69921 17078 ft 349 kts 155°
2026-04-25 14:17 10.42415 122.70909 17709 ft 353 kts 155°
2026-04-25 14:17 10.40150 122.71896 18337 ft 356 kts 155°
2026-04-25 14:17 10.37885 122.72884 18950 ft 358 kts 155°
2026-04-25 14:18 10.35556 122.73898 19570 ft 361 kts 155°
2026-04-25 14:18 10.33213 122.74919 20168 ft 364 kts 155°
2026-04-25 14:18 10.30869 122.75941 20744 ft 367 kts 155°
2026-04-25 14:18 10.28514 122.76967 21319 ft 370 kts 155°
2026-04-25 14:19 10.26136 122.78002 21889 ft 373 kts 155°
2026-04-25 14:19 10.23763 122.79037 22444 ft 375 kts 155°
2026-04-25 14:19 10.21348 122.80090 22992 ft 378 kts 155°
2026-04-25 14:19 10.18894 122.81158 23518 ft 382 kts 155°
2026-04-25 14:20 10.16442 122.82227 24027 ft 385 kts 155°
2026-04-25 14:20 10.14804 122.82940 24354 ft 387 kts 155°
2026-04-25 14:20 10.11487 122.84385 24996 ft 391 kts 156°
2026-04-25 14:20 10.08983 122.85474 25463 ft 395 kts 156°
2026-04-25 14:21 10.06418 122.86591 25939 ft 398 kts 156°
2026-04-25 14:21 10.03870 122.87699 26394 ft 401 kts 156°
2026-04-25 14:21 10.01296 122.88819 26830 ft 404 kts 156°
2026-04-25 14:21 9.98715 122.89941 27272 ft 407 kts 156°
2026-04-25 14:22 9.96104 122.91077 27705 ft 410 kts 156°
2026-04-25 14:22 9.93447 122.92233 28120 ft 413 kts 156°
2026-04-25 14:22 9.90793 122.93388 28529 ft 416 kts 156°
2026-04-25 14:22 9.88108 122.94552 28964 ft 418 kts 156°
2026-04-25 14:23 9.85400 122.95721 29438 ft 419 kts 156°
2026-04-25 14:23 9.82740 122.96873 29897 ft 421 kts 156°
2026-04-25 14:23 9.80026 122.98051 30348 ft 422 kts 156°
2026-04-25 14:23 9.77306 122.99258 30796 ft 424 kts 155°
2026-04-25 14:24 9.74641 123.00501 31225 ft 425 kts 154°
2026-04-25 14:24 9.71936 123.01779 31651 ft 426 kts 154°
2026-04-25 14:24 9.69248 123.03050 32059 ft 428 kts 154°
2026-04-25 14:24 9.66558 123.04319 32611 ft 425 kts 154°
2026-04-25 14:25 9.63865 123.05589 33238 ft 422 kts 154°
2026-04-25 14:25 9.61234 123.06828 33762 ft 420 kts 154°
2026-04-25 14:25 9.58564 123.08084 34252 ft 419 kts 154°
2026-04-25 14:25 9.56804 123.08911 34555 ft 419 kts 154°
2026-04-25 14:26 9.53252 123.10580 35125 ft 419 kts 155°
2026-04-25 14:26 9.50610 123.11821 35488 ft 420 kts 155°
2026-04-25 14:26 9.47937 123.13076 35620 ft 425 kts 155°
2026-04-25 14:26 9.45239 123.14342 35757 ft 430 kts 155°
2026-04-25 14:27 9.42488 123.15633 35889 ft 435 kts 155°
2026-04-25 14:27 9.39721 123.16930 36013 ft 440 kts 155°
2026-04-25 14:27 9.36921 123.18244 36136 ft 444 kts 155°
2026-04-25 14:27 9.34100 123.19567 36259 ft 447 kts 155°
2026-04-25 14:28 9.31266 123.20896 36440 ft 449 kts 155°
2026-04-25 14:28 9.28425 123.22229 36699 ft 449 kts 155°
2026-04-25 14:28 9.25587 123.23560 36912 ft 450 kts 155°
2026-04-25 14:29 9.19898 123.26230 36919 ft 449 kts 155°
2026-04-25 14:29 9.14235 123.28886 36906 ft 449 kts 155°
2026-04-25 14:30 9.08545 123.31545 36899 ft 449 kts 155°
2026-04-25 14:30 9.00013 123.35527 36881 ft 449 kts 155°
2026-04-25 14:31 8.94344 123.38176 36872 ft 450 kts 155°
2026-04-25 14:31 8.88646 123.40839 36881 ft 449 kts 155°
2026-04-25 14:32 8.82966 123.43481 36884 ft 449 kts 155°
2026-04-25 14:32 8.77296 123.46123 36879 ft 449 kts 154°
2026-04-25 14:33 8.71618 123.48774 36881 ft 448 kts 154°
2026-04-25 14:33 8.65944 123.51424 36887 ft 448 kts 154°
2026-04-25 14:34 8.60265 123.54076 36890 ft 448 kts 154°
2026-04-25 14:34 8.54572 123.56734 36896 ft 448 kts 154°
2026-04-25 14:35 8.23738 123.71127 36962 ft 448 kts 154°
2026-04-25 14:35 7.72546 123.94991 36989 ft 450 kts 154°
2026-04-25 14:36 7.66808 123.97646 36963 ft 450 kts 154°
2026-04-25 14:36 7.61091 124.00297 36940 ft 449 kts 154°
2026-04-25 14:37 7.55396 124.02940 36920 ft 449 kts 154°
2026-04-25 14:37 7.29627 124.14899 36884 ft 449 kts 154°
2026-04-25 14:38 7.24013 124.17510 36350 ft 442 kts 154°
2026-04-25 14:38 7.21195 124.18843 35468 ft 444 kts 152°
2026-04-25 14:38 7.18463 124.20305 34474 ft 447 kts 149°
2026-04-25 14:39 7.15805 124.21939 33487 ft 450 kts 146°
2026-04-25 14:39 7.13259 124.23724 32511 ft 452 kts 142°
2026-04-25 14:39 7.10776 124.25677 31538 ft 455 kts 140°
2026-04-25 14:39 7.08308 124.27676 30524 ft 458 kts 140°
2026-04-25 14:40 7.05834 124.29689 29485 ft 462 kts 140°
2026-04-25 14:40 7.03307 124.31745 28389 ft 466 kts 140°
2026-04-25 14:40 7.00803 124.33778 27606 ft 467 kts 140°
2026-04-25 14:40 6.98266 124.35835 27115 ft 470 kts 140°
2026-04-25 14:41 6.95716 124.37904 26624 ft 471 kts 139°
2026-04-25 14:41 6.93141 124.39992 26119 ft 472 kts 139°
2026-04-25 14:41 6.64135 124.63409 21554 ft 461 kts 139°
2026-04-25 14:41 6.59809 124.66808 20729 ft 449 kts 141°
2026-04-25 14:42 6.57310 124.68645 20197 ft 440 kts 142°
2026-04-25 14:42 6.55674 124.69848 19589 ft 440 kts 142°
2026-04-25 14:42 6.52377 124.72298 18398 ft 438 kts 142°
2026-04-25 14:42 6.49955 124.74117 17643 ft 433 kts 142°
2026-04-25 14:43 6.47557 124.75929 16914 ft 429 kts 142°
2026-04-25 14:43 6.45190 124.77720 16186 ft 424 kts 142°
2026-04-25 14:43 6.42860 124.79483 15451 ft 420 kts 142°
2026-04-25 14:43 6.40554 124.81231 14744 ft 415 kts 141°
2026-04-25 14:44 6.38422 124.83194 14093 ft 407 kts 131°
2026-04-25 14:44 6.36727 124.85377 13841 ft 390 kts 124°
2026-04-25 14:44 6.35206 124.87563 13583 ft 376 kts 123°
2026-04-25 14:44 6.33741 124.89700 13210 ft 366 kts 123°
2026-04-25 14:45 6.32791 124.91081 12940 ft 360 kts 123°
2026-04-25 14:45 6.30901 124.93790 12397 ft 351 kts 125°
2026-04-25 14:45 6.29377 124.95695 12022 ft 344 kts 128°
2026-04-25 14:45 6.27846 124.97523 11608 ft 338 kts 128°
2026-04-25 14:46 6.26328 124.99325 11176 ft 334 kts 128°
2026-04-25 14:46 6.24850 125.01080 10737 ft 330 kts 128°
2026-04-25 14:46 6.23375 125.02835 10307 ft 325 kts 127°
2026-04-25 14:46 6.21922 125.04563 10023 ft 317 kts 127°
2026-04-25 14:47 6.20536 125.06212 9959 ft 301 kts 127°
2026-04-25 14:47 6.19646 125.07269 9773 ft 296 kts 127°
2026-04-25 14:47 6.17893 125.09360 9336 ft 291 kts 127°
2026-04-25 14:47 6.16589 125.10919 8946 ft 288 kts 127°
2026-04-25 14:48 6.15309 125.12444 8587 ft 286 kts 127°
2026-04-25 14:48 6.14071 125.13918 8242 ft 284 kts 127°
2026-04-25 14:48 6.13716 125.14340 8169 ft 283 kts 127°
2026-04-25 14:48 6.13198 125.14954 8012 ft 283 kts 126°
2026-04-25 14:49 6.11930 125.16466 7643 ft 282 kts 126°
2026-04-25 14:49 6.10553 125.17853 7271 ft 285 kts 143°
2026-04-25 14:49 6.08685 125.18603 6939 ft 289 kts 167°
2026-04-25 14:49 6.06686 125.18854 6621 ft 287 kts 171°
2026-04-25 14:50 6.04719 125.19060 6307 ft 285 kts 171°
2026-04-25 14:50 6.02733 125.19273 5991 ft 283 kts 170°
2026-04-25 14:50 6.00782 125.19497 5680 ft 281 kts 170°
2026-04-25 14:50 5.98817 125.19731 5368 ft 279 kts 170°
2026-04-25 14:51 5.96899 125.19965 5059 ft 277 kts 170°
2026-04-25 14:51 5.94979 125.20200 4760 ft 275 kts 170°
2026-04-25 14:51 5.93074 125.20433 4457 ft 273 kts 170°
2026-04-25 14:51 5.91192 125.20617 4138 ft 274 kts 179°
2026-04-25 14:52 5.89381 125.20092 3791 ft 272 kts 214°
2026-04-25 14:52 5.88144 125.18709 3488 ft 260 kts 246°
2026-04-25 14:52 5.87708 125.17034 3223 ft 244 kts 266°
2026-04-25 14:52 5.87600 125.15908 3153 ft 232 kts 267°
2026-04-25 14:53 5.87447 125.13848 3086 ft 212 kts 276°
2026-04-25 14:53 5.87896 125.12512 3021 ft 198 kts 312°
2026-04-25 14:53 5.88940 125.11694 3053 ft 183 kts 341°
2026-04-25 14:53 5.90116 125.11443 2967 ft 166 kts 356°
2026-04-25 14:54 5.91222 125.11330 2889 ft 150 kts 357°
2026-04-25 14:54 5.92255 125.11230 2811 ft 147 kts 358°
2026-04-25 14:54 5.93275 125.11124 2738 ft 147 kts 357°
2026-04-25 14:54 5.94302 125.11010 2651 ft 148 kts 357°
2026-04-25 14:55 5.94995 125.10930 2571 ft 148 kts 356°
2026-04-25 14:55 5.96364 125.10769 2244 ft 144 kts 356°
2026-04-25 14:55 5.97348 125.10649 2021 ft 142 kts 356°
2026-04-25 14:55 5.98346 125.10529 1806 ft 143 kts 356°
2026-04-25 14:56 5.99334 125.10408 1596 ft 143 kts 356°
2026-04-25 14:56 6.00323 125.10286 1386 ft 143 kts 356°
2026-04-25 14:56 6.01328 125.10163 1172 ft 144 kts 355°
2026-04-25 14:56 6.02334 125.10044 970 ft 145 kts 355°
2026-04-25 14:57 6.03338 125.09924 786 ft 146 kts 355°
2026-04-25 14:57 6.04366 125.09794 573 ft 146 kts 354°
2026-04-25 14:57 6.05324 125.09678 534 ft 120 kts 352°
2026-04-25 14:57 6.05992 125.09596 533 ft 70 kts 353°
2026-04-25 14:58 6.06309 125.09554 534 ft 20 kts 354°
2026-04-25 14:58 6.06392 125.09531 533 ft 8 kts 333°
2026-04-25 14:58 6.06391 125.09546 533 ft 5 kts 169°
2026-04-25 14:58 6.06348 125.09551 533 ft 6 kts 173°
2026-04-25 14:59 6.06296 125.09557 533 ft 8 kts 172°
2026-04-25 14:59 6.06223 125.09566 533 ft 12 kts 173°
2026-04-25 14:59 6.06125 125.09579 533 ft 15 kts 173°
2026-04-25 14:59 6.06018 125.09592 533 ft 15 kts 172°
2026-04-25 15:00 6.05909 125.09605 533 ft 15 kts 173°
2026-04-25 15:00 6.05835 125.09624 533 ft 7 kts 141°
2026-04-25 15:00 6.05823 125.09679 533 ft 9 kts 84°
2026-04-25 15:00 6.05831 125.09747 533 ft 10 kts 83°
2026-04-25 15:01 6.05839 125.09822 533 ft 11 kts 86°
2026-04-25 15:01 6.05788 125.09870 533 ft 12 kts 174°
2026-04-25 15:01 6.05720 125.09877 533 ft 3 kts 171°
2026-04-25 15:01 6.05705 125.09894 533 ft 4 kts 101°
2026-04-25 15:02 6.05706 125.09927 533 ft 5 kts 85°
2026-04-25 15:02 6.05709 125.09949 533 ft 3 kts 83°
2026-04-25 15:02 6.05710 125.09959 532 ft 0 kts 83°
2026-04-25 15:02 6.05711 125.09967 532 ft 1 kts 83°
2026-04-25 15:03 6.05711 125.09969 532 ft 0 kts 83°